PACCTY-2 Weather Reports


Display with metric or nautical units.
time (UTC)temp
F
wind
direction
speed
MPH
gust
MPH
rain 1hr
in
rain 24hr
in
rain mn
in
humidity
%
barometer
mb
20260509230926 59 2 13.0 20.0 0.00 0.01 0.00
20260509230425 59 340 13.0 20.0 0.00 0.01 0.00
20260509224923 60 348 16.0 19.0 0.00 0.01 0.00
20260509223920 60 336 14.0 19.0 0.00 0.01 0.00
20260509222918 60 333 15.0 18.0 0.00 0.01 0.00
20260509222417 61 333 14.0 18.0 0.00 0.01 0.00
20260509221918 61 317 14.0 17.0 0.00 0.01 0.00
20260509221417 61 334 13.0 16.0 0.00 0.01 0.00
20260509220413 61 333 13.0 16.0 0.00 0.01 0.00
20260509215912 60 334 14.0 18.0 0.00 0.01 0.00
20260509214910 60 354 12.0 18.0 0.00 0.01 0.00
20260509214410 60 343 14.0 18.0 0.00 0.01 0.00
20260509213910 60 343 15.0 22.0 0.00 0.01 0.00
20260509213408 60 345 16.0 22.0 0.00 0.01 0.00
20260509212406 59 344 18.0 22.0 0.00 0.01 0.01
20260509211404 60 344 17.0 20.0 0.00 0.01 0.01
20260509205900 60 336 16.0 19.0 0.00 0.01 0.01
20260509204858 59 5 16.0 21.0 0.00 0.01 0.01
20260509204357 59 352 19.0 21.0 0.00 0.01 0.01
20260509203355 59 2 18.0 21.0 0.00 0.01 0.01
20260509201855 59 336 16.0 20.0 0.00 0.01 0.01
20260509201852 59 336 16.0 20.0 0.00 0.01 0.01
20260509200350 59 337 16.0 20.0 0.00 0.01 0.01
20260509195848 59 351 16.0 20.0 0.00 0.01 0.01
20260509193844 59 345 16.0 18.0 0.00 0.01 0.01
20260509193343 59 344 14.0 17.0 0.00 0.01 0.01
20260509192341 59 348 12.0 16.0 0.00 0.01 0.01
20260509191840 59 337 12.0 16.0 0.00 0.01 0.01
20260509190841 58 341 12.0 15.0 0.00 0.01 0.01
20260509185836 58 343 11.0 17.0 0.00 0.01 0.01
20260509184835 58 340 13.0 16.0 0.00 0.01 0.01
20260509183833 58 324 13.0 16.0 0.00 0.01 0.01
20260509183331 58 334 13.0 17.0 0.00 0.01 0.01
20260509182830 58 345 13.0 17.0 0.00 0.01 0.01
20260509181838 57 344 15.0 16.0 0.00 0.01 0.01
20260509181828 57 344 15.0 16.0 0.00 0.01 0.01
20260509180325 57 337 13.0 15.0 0.00 0.01 0.01
20260509174823 57 329 11.0 12.0 0.00 0.01 0.01
20260509173319 56 326 10.0 11.0 0.00 0.01 0.01
20260509172818 56 337 9.0 10.0 0.00 0.01 0.01
20260509171816 56 338 8.0 9.0 0.00 0.01 0.01
20260509170816 55 344 8.0 8.0 0.00 0.01 0.01
20260509165812 55 343 6.0 7.0 0.00 0.01 0.01
20260509165311 55 330 4.0 7.0 0.00 0.01 0.01
20260509164810 55 323 5.0 7.0 0.00 0.01 0.01
20260509164310 55 327 4.0 6.0 0.00 0.01 0.01
20260509163307 55 0 0.0 0.0 0.00 0.01 0.01
20260509162806 55 0 0.0 0.0 0.00 0.01 0.01
20260509162307 55 0 0.0 0.0 0.00 0.01 0.01
20260509161804 54 0 0.0 0.0 0.00 0.01 0.01
20260509161304 54 0 0.0 0.0 0.00 0.01 0.01
20260509160802 54 0 0.0 0.0 0.00 0.01 0.01
20260509155800 54 0 0.0 0.0 0.00 0.01 0.01
20260509155259 53 0 0.0 0.0 0.00 0.01 0.01
20260509154759 53 0 0.0 0.0 0.00 0.01 0.01
20260509154257 53 0 0.0 0.0 0.00 0.01 0.01
20260509153255 52 0 0.0 0.0 0.00 0.01 0.01
20260509152755 52 0 0.0 0.0 0.00 0.01 0.01
20260509151752 51 0 0.0 0.0 0.00 0.01 0.01
20260509151251 51 0 0.0 0.0 0.00 0.01 0.01
20260509150752 51 0 0.0 0.0 0.00 0.01 0.01
20260509145748 50 0 0.0 0.0 0.00 0.01 0.01
20260509145248 50 0 0.0 0.0 0.00 0.01 0.01
20260509144246 49 0 0.0 0.0 0.00 0.01 0.01
20260509143744 49 0 0.0 0.0 0.00 0.01 0.01
20260509143244 49 0 0.0 3.0 0.00 0.01 0.01
20260509142742 48 0 0.0 3.0 0.00 0.01 0.01
20260509141740 48 0 0.0 0.0 0.00 0.01 0.01
20260509140237 48 0 0.0 0.0 0.00 0.01 0.01
20260509135736 47 0 0.0 0.0 0.00 0.01 0.01
20260509133733 46 0 0.0 0.0 0.00 0.01 0.01
20260509132730 46 0 0.0 0.0 0.00 0.01 0.01
20260509130225 46 0 0.0 0.0 0.00 0.01 0.01
20260509125724 46 0 0.0 0.0 0.00 0.01 0.01
20260509124222 46 0 0.0 0.0 0.00 0.01 0.01
20260509123720 46 0 0.0 0.0 0.00 0.01 0.01
20260509123219 46 0 0.0 0.0 0.00 0.01 0.01
20260509122718 46 0 0.0 0.0 0.00 0.01 0.01
20260509122217 46 0 0.0 0.0 0.00 0.01 0.01
20260509121716 46 0 0.0 0.0 0.00 0.01 0.01
20260509120714 46 0 0.0 0.0 0.01 0.01 0.01
20260509115712 46 0 0.0 0.0 0.01 0.01 0.01
20260509114209 46 0 0.0 0.0 0.01 0.01 0.01
20260509113207 46 0 0.0 0.0 0.01 0.01 0.01
20260509112206 46 0 0.0 0.0 0.01 0.01 0.01
20260509111706 46 0 0.0 0.0 0.01 0.01 0.01
20260509111207 46 0 0.0 0.0 0.01 0.01 0.01
20260509111203 46 0 0.0 0.0 0.01 0.01 0.01
20260509110702 47 0 0.0 0.0 0.00 0.00 0.00
20260509110201 47 0 0.0 0.0 0.00 0.00 0.00
20260509105700 47 0 0.0 0.0 0.00 0.00 0.00
20260509105159 47 0 0.0 0.0 0.00 0.00 0.00
20260509104658 47 0 0.0 0.0 0.00 0.00 0.00
20260509104157 48 0 0.0 0.0 0.00 0.00 0.00
20260509103657 48 0 0.0 0.0 0.00 0.00 0.00
20260509103155 48 0 0.0 0.0 0.00 0.00 0.00
20260509102656 48 0 0.0 0.0 0.00 0.00 0.00
20260509095648 47 0 0.0 0.0 0.00 0.00 0.00
20260509095147 47 0 0.0 0.0 0.00 0.00 0.00
20260509094646 47 0 0.0 0.0 0.00 0.00 0.00
20260509094145 48 0 0.0 0.0 0.00 0.00 0.00
20260509093644 48 0 0.0 0.0 0.00 0.00 0.00
20260509092141 48 0 0.0 0.0 0.00 0.00 0.00
20260509090638 48 0 0.0 0.0 0.00 0.00 0.00
20260509090137 48 0 0.0 0.0 0.00 0.00 0.00
20260509085638 48 0 0.0 3.0 0.00 0.00 0.00
20260509084634 48 93 0.0 3.0 0.00 0.00 0.00
20260509084133 48 0 0.0 1.0 0.00 0.00 0.00
20260509083632 48 0 0.0 2.0 0.00 0.00 0.00
20260509082630 49 147 0.0 2.0 0.00 0.00 0.00
20260509082130 49 0 0.0 0.0 0.00 0.00 0.00
20260509075624 50 0 0.0 4.0 0.00 0.00 0.00
20260509075124 50 0 0.0 4.0 0.00 0.00 0.00
20260509073620 50 0 0.0 0.0 0.00 0.00 0.00
20260509073121 50 0 0.0 0.0 0.00 0.00 0.00
20260509072618 50 0 0.0 0.0 0.00 0.00 0.00
20260509072117 50 0 0.0 0.0 0.00 0.00 0.00
20260509071616 50 0 0.0 0.0 0.00 0.00 0.00
20260509071115 50 0 0.0 0.0 0.00 0.00 0.00
20260509070614 50 0 0.0 0.0 0.00 0.00 0.00
20260509070113 50 0 0.0 0.0 0.00 0.00 0.00
20260509065612 51 0 0.0 0.0 0.00 0.00 0.00
20260509065111 51 0 0.0 0.0 0.00 0.00 0.00
20260509064610 51 0 0.0 0.0 0.00 0.00 0.00
20260509064109 51 0 0.0 0.0 0.00 0.00 0.00
20260509063107 51 0 0.0 0.0 0.00 0.00 0.00
20260509062105 51 0 0.0 0.0 0.00 0.00 0.00
20260509061604 52 0 0.0 0.0 0.00 0.00 0.00
20260509061104 52 0 0.0 0.0 0.00 0.00 0.00
20260509060603 52 0 0.0 0.0 0.00 0.00 0.00
20260509060101 52 0 0.0 0.0 0.00 0.00 0.00
20260509055600 52 0 0.0 0.0 0.00 0.00 0.00
20260509054057 53 0 0.0 0.0 0.00 0.00 0.00
20260509053556 53 0 0.0 0.0 0.00 0.00 0.00
20260509052053 53 0 0.0 0.0 0.00 0.00 0.00
20260509051552 53 0 0.0 0.0 0.00 0.00 0.00
20260509051051 53 0 0.0 0.0 0.00 0.00 0.00
20260509045548 54 0 0.0 0.0 0.00 0.00 0.00
20260509044045 54 0 0.0 0.0 0.00 0.00 0.00
20260509043545 54 0 0.0 0.0 0.00 0.00 0.00
20260509042544 55 0 0.0 0.0 0.00 0.00 0.00
20260509042042 55 0 0.0 0.0 0.00 0.00 0.00
20260509041541 55 0 0.0 0.0 0.00 0.00 0.00
20260509041039 55 0 0.0 0.0 0.00 0.00 0.00
20260509040037 56 0 0.0 0.0 0.00 0.00 0.00
20260509035536 56 0 0.0 0.0 0.00 0.00 0.00
20260509034534 56 0 0.0 0.0 0.00 0.00 0.00